Regional Weather Roundup
Issued by NWS Spokane, WA

Home | Current Version | Previous Version | Text Only | Print | Product List | Glossary On
Versions: 1 2 3 4 5 6 7 8 9 10 11 12 13 14 15 16 17 18 19 20 21 22 23 24 25 26 27 28 29 30 31 32 33 34 35 36 37 38 39 40 41 42 43 44 45 46 47 48 49 50
000
NZUS01 KOTX 190810
RWROTX
EASTERN WASHINGTON/NORTHERN IDAHO ROUNDUP
NATIONAL WEATHER SERVICE, SPOKANE WA
100 AM PDT FRI SEP 19 2014

Note: "fair" indicated few or no clouds below 12,000 feet with no
significant weather and/or obstructions to visibility.

...NORTHEAST WASHINGTON AND NORTHERN IDAHO PANHANDLE...

CITY           SKY/WX    TMP DP  RH WIND       PRES   REMARKS
SPOKANE INTL   PTCLDY    59  47  64 S13       29.88R
SPOKANE DOWNTO PTCLDY    63  47  55 S10       29.88R
COEUR D ALENE  MOCLDY    63  46  55 S3        29.88R
DEER PARK      CLOUDY    61  48  62 S7        29.86R
SANDPOINT      CLOUDY    55  55 100 CALM      29.84R

...SOUTHEAST WASHINGTON AND SOUTHERN IDAHO PANHANDLE...

CITY           SKY/WX    TMP DP  RH WIND       PRES   REMARKS
WALLA WALLA    PTCLDY    64  50  60 S9        29.96R
PULLMAN/MOSCOW PTCLDY    59  48  67 SW9       29.96R
LEWISTON       CLOUDY    69  49  48 NW3       29.91R
LOWELL           N/A     60  54  80 CALM      29.91R

...COLUMBIA BASIN...

CITY           SKY/WX    TMP DP  RH WIND       PRES   REMARKS
EPHRATA        MOCLDY    64  47  53 SW9       29.84R
MOSES LAKE     MOCLDY    65  50  58 S10       29.87R
TRI CITIES     PTCLDY    64  55  72 SW12      29.91R
HERMISTON      PTCLDY    65  50  58 SW12      29.93R
PENDLETON      PTCLDY    63  48  58 W15       29.96R

...EAST SLOPES CASCADES...

CITY           SKY/WX    TMP DP  RH WIND       PRES   REMARKS
THE DALLES     CLEAR     64  54  69 SW6       29.95R
YAKIMA         PTCLDY    55  48  77 CALM      29.92S
ELLENSBURG     MOCLDY    64  51  62 W18       29.94S
WENATCHEE      CLOUDY    69  48  47 NW17      29.86S
OMAK           CLOUDY    64  50  60 CALM      29.83R

...SOUTHERN BRITISH COLUMBIA...

CITY           SKY/WX    TMP DP  RH WIND       PRES   REMARKS
PENTICTON      CLOUDY    63  57  82 SE6       29.83
CRANBROOK      MOCLDY    55  48  76 VRB2      29.80R

...WESTERN MONTANA...

CITY           SKY/WX    TMP DP  RH WIND       PRES   REMARKS
MISSOULA       CLOUDY    62  45  53 CALM      29.90R

...NEIGHBORING CITIES...

CITY           SKY/WX    TMP DP  RH WIND       PRES   REMARKS
SEATTLE        CLOUDY    63  57  81 S6        30.00R
CALGARY        PTCLDY    54  46  76 SW5       29.67S



USA.gov is the U.S. government's official web portal to all federal, state and local government web resources and services.